Regional Weather Roundup
Issued by NWS

Home | Current Version | Previous Version | Text Only | Print | Product List | Glossary On
Versions: 1 2 3 4 5 6 7 8 9 10 11 12 13 14 15 16 17 18 19 20 21 22 23 24 25 26 27 28 29 30 31 32 33 34 35 36 37 38 39 40 41 42 43 44 45 46 47 48 49 50
000
ASUS44 KOUN 251110
RWROK

WEATHER ROUNDUP FOR OKLAHOMA
NATIONAL WEATHER SERVICE NORMAN OK
600 AM CDT SAT OCT 25 2014

NOTE: "FAIR" INDICATES FEW OR NO CLOUDS BELOW 12,000 FEET WITH NO
      SIGNIFICANT WEATHER AND/OR OBSTRUCTIONS TO VISIBILITY.

OKZ001>007-009>012-014-015-017-251200-
NORTHWEST OKLAHOMA AND THE PANHANDLE

CITY           SKY/WX    TMP DP  RH WIND       PRES   REMARKS
GAGE           CLEAR     52  51  97 SW5       30.07S
ENID/WOODRING  FOG       54  54 100 S6        30.02S VSB 1/4
$$

OKZ016-021>023-033>039-044-045-251200-
SOUTHWEST OKLAHOMA

CITY           SKY/WX    TMP DP  RH WIND       PRES   REMARKS
LAWTON/REGL    CLEAR     55  52  89 CALM      30.07S
LAWTON/FT SILL CLEAR     59  58  95 S5        30.06S
FREDERICK      CLEAR     59  54  83 E3        30.05R
CLINTON        CLEAR     61  55  81 SW8       30.08S
HOBART         CLEAR     60  55  83 S10       30.07S
ALTUS AFB      CLEAR     56  56 100 SE5       30.07S
$$

OKZ018>020-024>031-251200-
CENTRAL OKLAHOMA

CITY           SKY/WX    TMP DP  RH WIND       PRES   REMARKS
OKLAHOMA CITY  CLEAR     60  57  89 S7        30.06S
OKC/WILEY POST CLEAR     64  59  83 S10       30.05S
OKC/TINKER AFB CLEAR     59  57  94 S9        30.06S
STILLWATER     CLEAR     60  57  89 SE3       30.03S
GUTHRIE        CLEAR     63  59  87 S7        30.04S
$$

OKZ008-013-054>072-251200-
NORTHEAST OKLAHOMA

CITY           SKY/WX    TMP DP  RH WIND       PRES   REMARKS
TULSA          CLEAR     64  60  87 S6        30.04R
TULSA/JONES    CLEAR     58  58 100 S3        30.05S
PONCA CITY     CLEAR     62  59  90 SE5       30.03R
BARTLESVILLE   FOG       52  52 100 CALM      30.06S VSB 1/4
MUSKOGEE       CLEAR     59  56  89 S6        30.08S
$$

OKZ032-040>043-046>053-073>077-251200-
SOUTH CENTRAL/SOUTHEAST OKLAHOMA

CITY           SKY/WX    TMP DP  RH WIND       PRES   REMARKS
ARDMORE/DWNTWN CLEAR     59  57  94 CALM      30.09S FOG
MCALESTER      PTCLDY    65  58  78 S5        30.10R
$$




USA.gov is the U.S. government's official web portal to all federal, state and local government web resources and services.